Regional Weather Roundup
Issued by NWS

Home | Current Version | Previous Version | Text Only | Print | Product List | Glossary On
Versions: 1 2 3 4 5 6 7 8 9 10 11 12 13 14 15 16 17 18 19 20 21 22 23 24 25 26 27 28 29 30 31 32 33 34 35 36 37 38 39 40 41 42 43 44 45 46 47 48 49 50
000
ASUS44 KFWD 032215
RWRTX
NORTH TEXAS HOURLY WEATHER ROUNDUP
NATIONAL WEATHER SERVICE FORT WORTH TX
400 PM CST TUE MAR 03 2015

NOTE: "FAIR" INDICATES FEW OR NO CLOUDS BELOW 12,000 FEET WITH NO
SIGNIFICANT WEATHER AND/OR OBSTRUCTIONS TO VISIBILITY.

TXZ118-119-032300-
DALLAS/FORT WORTH METROPLEX

CITY           SKY/WX    TMP DP  RH WIND       PRES   REMARKS
DFW AIRPORT    DRZL/FOG  51  50  96 S9        29.83F VSB 1
DALLAS LOVE    LGT RAIN  52  51  97 SE9       29.85F FOG
FTW MEACHAM    CLOUDY    54  52  93 SE12      29.81F FOG
DAL-EXECUTIVE  FOG       51  51 100 SE6       29.83F VSB 3/4
FTW-ALLIANCE   DRIZZLE   52  50  93 SE9       29.82F FOG
FTW-SPINKS     CLOUDY    54  52  94 SE7       29.85F FOG
ARLINGTON      FOG       52  49  89 SE8       29.84F VSB 3/4
GRAND PRAIRIE  CLOUDY    52  52 100 SE6       29.86F FOG
ADDISON        CLOUDY    52  50  93 SE7       29.85F FOG
MESQUITE       CLOUDY    48  48 100 CALM      29.86F FOG
LANCASTER      DRIZZLE   49  48  95 CALM      29.87F
$$

TXZ091>094-102>105-117-120-121-131>134-032300-
NORTH CENTRAL TEXAS

CITY           SKY/WX    TMP DP  RH WIND       PRES   REMARKS
SHRMAN/DENISON CLOUDY    51  51 100 SE7       29.85S FOG
GAINESVILLE    CLOUDY    49  47  92 SE3       29.85F FOG
BOWIE          CLOUDY    53  49  88 SE5       29.81F
BRIDGEPORT     DRIZZLE   54  54 100 SE6       29.83F
DECATUR        CLOUDY    51  50  95 E5        29.82S FOG
DENTON         FOG       49  48  97 SE7       29.82F VSB 1
MCKINNEY       LGT RAIN  49  48  97 VRB3      29.85F FOG
GREENVILLE     DRIZZLE   50  48  93 N3        29.86F
TERRELL        RAIN      52  50  93 NW5       29.86F FOG
WAXAHACHIE     FOG       50  50 100 CALM      29.86F VSB 3/4
CLEBURNE       FOG       52  52 100 SE6       29.85F VSB 1/4
GRANBURY       CLOUDY    53  51  93 SE9       29.84F FOG
$$

TXZ083>090-098>101-113>116-127>130-139>142-154-155-032300-
WESTERN NORTH TEXAS

CITY           SKY/WX    TMP DP  RH WIND       PRES   REMARKS
WICHITA FALLS  MOSUNNY   58  48  69 S6        29.79S
WF-KICKAPOO    MOSUNNY   59  50  70 S5        29.80F
VERNON         CLOUDY    60  43  52 S5        29.80R
ABILENE        CLOUDY    58  49  72 SW6       29.81F
ABILENE-DYESS  PTSUNNY   58  48  70 S7        29.80F
BRECKENRIDGE   CLOUDY    62  51  67 SW7       29.81R HAZE
GRAHAM         CLOUDY    59  53  80 SE7       29.79F
MINERAL WELLS  CLOUDY    53  51  93 SE9       29.80F FOG
STEPHENVILLE   CLOUDY    56  53  87 S6        29.84F
COMANCHE       CLOUDY    62  57  83 S6        29.81F
BROWNWOOD      CLOUDY    59  54  82 NE3       29.81S
COLEMAN        MOSUNNY   66  56  68 CALM      29.80S
BRADY          SUNNY     72  55  56 S12       29.77F
$$

TXZ143>147-156>162-174-175-032300-
CENTRAL TEXAS

CITY           SKY/WX    TMP DP  RH WIND       PRES   REMARKS
WACO           FOG       50  50 100 SE3       29.84F VSB<1/4
WACO-MCGREGOR  CLOUDY    54  48  82 SE6       29.85F
HILLSBORO      FOG       51  49  96 CALM      29.85F VSB 1/2
CORSICANA      FOG       53  51  93 NW6       29.85F VSB 1/2
MEXIA          FOG       57  57  99 S7        29.83F VSB 1/2
HEARNE         CLOUDY    57  56  95 NW7       29.86F FOG
CAMERON        FOG       53  53 100 NW3       29.86S VSB 3/4
TEMPLE         CLOUDY    54  50  87 S12       29.83F VSB 1/2
KILLEEN        FOG       57  57 100 S8        29.81F VSB 1/2
KILLEEN-SKYLRK CLOUDY    57  54  88 S8        29.81F
FORT HOOD      FOG       55  55 100 SE7       29.82F VSB 1/2
GATESVILLE     CLOUDY    54  54 100 S7        29.85F FOG
HAMILTON       FOG       53  53 100 E10       29.82F VSB 3/4
LAMPASAS       CLOUDY    63  59  88 S7        29.81F
$$

TXZ095>097-106>112-122>126-135>138-148>153-164>167-032300-
EAST TEXAS

CITY           SKY/WX    TMP DP  RH WIND       PRES   REMARKS
PARIS          CLOUDY    45  41  87 NE5       29.87F
SULPHUR SPRNGS FOG       49  49 100 N7        29.88R VSB 1
MOUNT PLEASANT CLOUDY    61  59  94 CALM      29.86F
GILMER         CLOUDY    68  62  80 S7G17     29.85F
MINEOLA        PTSUNNY   64  64 100 S7        29.85F FOG
TYLER          CLOUDY    68  62  81 S12       29.84F
LONGVIEW       CLOUDY    71  62  73 S12       29.85F
MARSHALL       PTSUNNY   73  66  77 S10       29.89F
ATHENS         CLOUDY    66  63  88 S6        29.83F
PALESTINE      CLOUDY    69  65  87 SE7       29.85F
JACKSONVILLE   CLOUDY    69  64  82 S8        29.88S
NACOGDOCHES    PTSUNNY   72  64  78 S9        29.88F
LUFKIN         PTSUNNY   76  64  66 S8        29.87F
$$

SUPPLEMENTAL OBSERVATIONS (CENTRAL)

CITY           SKY/WX    TMP DP  RH WIND       PRES   REMARKS
$$

SUPPLEMENTAL OBSERVATIONS (WEST)

CITY           SKY/WX    TMP DP  RH WIND       PRES   REMARKS
$$

SUPPLEMENTAL OBSERVATIONS (EAST)

CITY           SKY/WX    TMP DP  RH WIND       PRES   REMARKS
$$

SUPPLEMENTAL OBSERVATIONS ARE A COLLECTION OF AUTOMATED INSTRUMENTS
THAT ARE MAINTAINED BY A VARIETY OF FEDERAL AND STATE AGENCIES.
CERTAIN ELEMENTS...SUCH AS HUMIDITY VALUES AND SUSTAINED WIND
SPEEDS...MAY BE APPROXIMATED.



USA.gov is the U.S. government's official web portal to all federal, state and local government web resources and services.